星链-3259 (STARLINK-3259 )

导读

STARLINK-3259是美国SpaceX公司于2021年12月18日发射的星链(Starlink)低轨互联网卫星,归属全球卫星互联网星座组网计划。星链项目旨在通过近地轨道部署数千颗小型卫星,为全球尤其是基础设施匮乏区域提供高速低延迟宽带服务,该卫星运行于约550公里高度近地轨道,是SpaceX推进全球覆盖互联网组网的组成单元,助力星链星座实现全球宽带互联网接入服务能力持续拓展。

基本信息
目录编号:
50192
目录名称:
STARLINK-3259
国际标识:
2021-125AN
轨道中心:
EARTH
卫星名称:
星链-3259
卫星全名:
星链-3259 (STARLINK-3259 )
卫星状态:
在轨 (已飞行1721 天)
发射日期:
2021-12-18 UTC
国别 :
美国 (US)
星等 :
--
轨道信息
数据来源 国际轨道数据 AOE轨道数据
星历时间 2026-09-04T01:45:28+0800
10小时前
查看轨道信息
2026-09-03T00:00:00+0800
1天前
查看轨道信息
半长轴 6843.235km 6843.302km
偏心率 0.0001766 0.0001857
轨道倾角 53.160° 53.160°
近地点辐角 106.644° 66.339°
升交点赤经 152.114° 157.128°
平近点角 253.476° 125.166°
近地点 463.889km 463.894km
远地点 466.307km 466.436km
周期 93.897分钟 93.898分钟
每日圈数 15.335948 15.335724
详细信息
固有亮度:
5
最大亮度:
2.5
卫星平台:
Starlink v1.5
覆盖范围:
全球
运营商:
太空探索技术公司
运营商所在国:
美国
制造商(研发单位):
太空探索技术公司
制造商所在国:
美国
使用方式:
暂无
卫星简介
星链(Starlink)计划是由太空探索技术公司(SpaceX)提出的一个巨型低轨卫星互联网星座项目,计划在2019年至2024年间在太空搭建由约1.2万颗卫星组成的“星链”网络,其中1584颗将部署在地球上空550千米处的近地轨道,并从2020年开始工作。该卫星仍在工作。
2D轨道图
3D轨道图
轨道高度分析图
轨道倾角分析图
轨道综合分析图
查看轨道综合分析图
交会数据列表
事件ID 空间交会对象 最接近时刻(TCA) 交会距离 交会风险概率(CRP) 交会风险指数(CRI) 操作
CDM_260903-111405-019206-416021
2026-09-03T
11:14:20+0000
2.294 km
极远距离
2.007647E-6 低风险 0.41
CDM_260827-202005-019205-899222
ADRAS-J (58992)
2026-08-27T
20:20:28+0000
2.237 km
极远距离
1.899627E-6 低风险 0.41
CDM_260831-014805-019206-975721
2026-08-31T
01:48:32+0000
2.222 km
极远距离
1.851825E-6 低风险 0.4
CDM_260905-040305-019206-759521
2026-09-05T
04:03:18+0000
2.643 km
极远距离
1.588784E-6 低风险 0.39
CDM_260903-193305-019206-994921
2026-09-03T
19:33:34+0000
2.453 km
极远距离
1.38454E-6 低风险 0.38
CDM_260903-152705-019205-212021
2026-09-03T
15:27:39+0000
2.799 km
极远距离
1.306517E-6 低风险 0.37
CDM_260903-214205-019206-166121
2026-09-03T
21:42:36+0000
2.954 km
极远距离
1.219879E-6 低风险 0.37
CDM_260904-135605-019206-869921
2026-09-04T
13:56:00+0000
2.913 km
极远距离
1.182513E-6 低风险 0.36
CDM_260903-080605-019206-492321
2026-09-03T
08:06:20+0000
2.623 km
极远距离
1.143369E-6 低风险 0.36
CDM_260905-000305-019205-878122
2026-09-05T
00:03:05+0000
2.948 km
极远距离
1.109394E-6 低风险 0.36